{"data":{"norad_id":63712,"intl_designator":"2025-087R","name":"STARLINK-33783","alt_names":[],"object_type":"PAYLOAD","status":"ACTIVE","operator":null,"country":"US","launch_date":"2025-04-28","launch_site_code":"AFWTR","launch_vehicle":null,"mission":null,"orbit_class":"UNKNOWN","rcs_meters":null,"size_class":null,"mass_kg":null,"dimensions":null,"purposes":["comms"],"wikipedia_slug":null,"has_3d_model":false,"image_url":null,"decayed_at":null,"tle_current":{"epoch":"2026-09-20T22:45:56.605248Z","epoch_age_seconds":113895,"freshness":"FRESH","line1":"1 63712U 25087R   26263.94857182  .00015332  00000+0  50518-3 0  9999","line2":"2 63712  53.1604  31.2521 0001121  95.3993 264.7137 15.31676596 79114","mean_motion":15.31676596,"eccentricity":0.0001121,"inclination_deg":53.1604,"raan_deg":31.2521,"arg_perigee_deg":95.3993,"mean_anomaly_deg":264.7137,"bstar":0.00050518,"rev_number":7911,"period_min":94.014624481472,"perigee_km":470.04199528811,"apogee_km":471.5775291522,"semimajor_km":6848.9467622202,"source":"CELESTRAK","updated_at":"2026-09-21T09:00:35.065254Z"}}}